Hourly Weather Kladovka

Today, 30 July, Friday

Time Temperature Precipitation Wind Pressure Humidity
00:00 +13°C° 0 mm 2 mps 718 mmHg 69%
01:00 +12°C° 0 mm 3 mps 718 mmHg 70%
02:00 +12°C° 0 mm 3 mps 718 mmHg 66%
03:00 +13°C° 0 mm 3 mps 718 mmHg 63%
04:00 +13°C° 0 mm 3 mps 717 mmHg 59%
05:00 +14°C° 0 mm 3 mps 717 mmHg 61%
06:00 +14°C° 0 mm 4 mps 718 mmHg 63%
07:00 +15°C° 0 mm 4 mps 718 mmHg 65%
08:00 +15°C° 0.1 mm 4 mps 717 mmHg 70%
09:00 +14°C° 0.1 mm 4 mps 717 mmHg 75%
10:00 +14°C° 0.1 mm 3 mps 716 mmHg 80%
11:00 +15°C° 0.3 mm 4 mps 716 mmHg 80%
12:00 +15°C° 0.3 mm 4 mps 716 mmHg 79%
13:00 +16°C° 0.3 mm 5 mps 716 mmHg 79%
14:00 +18°C° 0.1 mm 4 mps 716 mmHg 79%
15:00 +18°C° 0.1 mm 4 mps 715 mmHg 79%
16:00 +18°C° 0.1 mm 4 mps 715 mmHg 79%
17:00 +18°C° 0 mm 4 mps 715 mmHg 81%
18:00 +19°C° 0 mm 3 mps 715 mmHg 82%
19:00 +19°C° 0 mm 3 mps 715 mmHg 83%
20:00 +18°C° 0.1 mm 2 mps 716 mmHg 88%
21:00 +17°C° 0.1 mm 2 mps 716 mmHg 93%
22:00 +16°C° 0.1 mm 2 mps 716 mmHg 97%
23:00 +15°C° 0 mm 2 mps 716 mmHg 97%

Tomorrow, 31 July, Saturday

Time Temperature Precipitation Wind Pressure Humidity
00:00 +15°C° 0 mm 2 mps 716 mmHg 97%
01:00 +15°C° 0 mm 2 mps 716 mmHg 98%
02:00 +15°C° 0 mm 2 mps 717 mmHg 98%
03:00 +14°C° 0 mm 2 mps 717 mmHg 98%
04:00 +14°C° 0 mm 2 mps 717 mmHg 97%
05:00 +16°C° 0 mm 2 mps 717 mmHg 94%
06:00 +17°C° 0 mm 2 mps 718 mmHg 90%
07:00 +18°C° 0 mm 3 mps 718 mmHg 86%
08:00 +20°C° 0 mm 3 mps 718 mmHg 77%
09:00 +22°C° 0 mm 3 mps 719 mmHg 68%
10:00 +24°C° 0 mm 3 mps 719 mmHg 59%
11:00 +25°C° 0 mm 3 mps 719 mmHg 54%
12:00 +26°C° 0 mm 3 mps 719 mmHg 48%
13:00 +27°C° 0 mm 3 mps 719 mmHg 43%
14:00 +27°C° 0 mm 2 mps 719 mmHg 48%
15:00 +26°C° 0 mm 2 mps 718 mmHg 54%
16:00 +25°C° 0 mm 1 mps 718 mmHg 59%
17:00 +24°C° 0.1 mm 1 mps 718 mmHg 65%
18:00 +23°C° 0.1 mm 1 mps 718 mmHg 71%
19:00 +21°C° 0.1 mm 1 mps 718 mmHg 77%
20:00 +21°C° 0.6 mm 1 mps 718 mmHg 83%
21:00 +20°C° 0.6 mm 1 mps 718 mmHg 89%
22:00 +19°C° 0.6 mm 1 mps 717 mmHg 95%
23:00 +18°C° 0 mm 1 mps 717 mmHg 96%

Day after tomorrow, 1 August, Sunday

Time Temperature Precipitation Wind Pressure Humidity
00:00 +17°C° 0 mm 2 mps 717 mmHg 97%
01:00 +17°C° 0 mm 2 mps 717 mmHg 97%
02:00 +17°C° 0.2 mm 2 mps 717 mmHg 97%
03:00 +16°C° 0.2 mm 2 mps 717 mmHg 97%
04:00 +16°C° 0.2 mm 3 mps 717 mmHg 96%
05:00 +17°C° 0 mm 3 mps 717 mmHg 96%
06:00 +18°C° 0 mm 3 mps 717 mmHg 95%
07:00 +18°C° 0 mm 4 mps 717 mmHg 94%
08:00 +20°C° 0 mm 4 mps 718 mmHg 83%
09:00 +21°C° 0 mm 4 mps 718 mmHg 72%
10:00 +23°C° 0 mm 4 mps 718 mmHg 60%
11:00 +23°C° 0 mm 5 mps 718 mmHg 57%
12:00 +25°C° 0 mm 5 mps 718 mmHg 53%
13:00 +25°C° 0 mm 5 mps 719 mmHg 50%
14:00 +25°C° 0 mm 4 mps 719 mmHg 52%
15:00 +24°C° 0 mm 3 mps 719 mmHg 54%
16:00 +22°C° 0 mm 3 mps 719 mmHg 56%
17:00 +21°C° 0 mm 3 mps 719 mmHg 60%
18:00 +21°C° 0 mm 3 mps 719 mmHg 63%
19:00 +20°C° 0 mm 3 mps 719 mmHg 66%
20:00 +19°C° 0 mm 2 mps 719 mmHg 72%
21:00 +17°C° 0 mm 2 mps 719 mmHg 78%
22:00 +15°C° 0 mm 2 mps 719 mmHg 84%
23:00 +16°C° 0 mm 2 mps 720 mmHg 82%

2 August, Monday

Time Temperature Precipitation Wind Pressure Humidity
00:00 +16°C° 0 mm 2 mps 720 mmHg 81%
01:00 +16°C° 0 mm 2 mps 720 mmHg 79%
02:00 +15°C° 0 mm 2 mps 720 mmHg 84%
03:00 +14°C° 0 mm 2 mps 720 mmHg 89%
04:00 +13°C° 0 mm 2 mps 720 mmHg 93%
05:00 +15°C° 0 mm 2 mps 721 mmHg 86%
06:00 +16°C° 0 mm 3 mps 721 mmHg 78%
07:00 +18°C° 0 mm 4 mps 722 mmHg 71%
08:00 +19°C° 0 mm 4 mps 722 mmHg 64%
09:00 +21°C° 0 mm 5 mps 722 mmHg 56%
10:00 +22°C° 0 mm 5 mps 722 mmHg 49%
11:00 +23°C° 0 mm 5 mps 722 mmHg 47%
12:00 +25°C° 0 mm 5 mps 723 mmHg 45%
13:00 +26°C° 0 mm 5 mps 723 mmHg 42%
14:00 +25°C° 0 mm 4 mps 723 mmHg 45%
15:00 +25°C° 0 mm 4 mps 723 mmHg 49%
16:00 +25°C° 0 mm 4 mps 723 mmHg 52%
17:00 +24°C° 0 mm 3 mps 723 mmHg 60%
18:00 +21°C° 0 mm 3 mps 723 mmHg 68%
19:00 +20°C° 0 mm 2 mps 723 mmHg 76%
20:00 +19°C° 0 mm 2 mps 723 mmHg 81%
21:00 +18°C° 0 mm 1 mps 722 mmHg 87%
22:00 +16°C° 0 mm 1 mps 722 mmHg 93%
23:00 +16°C° 0.5 mm 1 mps 722 mmHg 94%

3 August, Tuesday

Time Temperature Precipitation Wind Pressure Humidity
00:00 +16°C° 0.5 mm 1 mps 722 mmHg 95%
01:00 +16°C° 0.5 mm 2 mps 722 mmHg 95%
02:00 +16°C° 0.3 mm 2 mps 722 mmHg 95%
03:00 +16°C° 0.3 mm 2 mps 722 mmHg 95%
04:00 +16°C° 0.3 mm 2 mps 722 mmHg 95%
05:00 +17°C° 0 mm 2 mps 722 mmHg 93%
06:00 +18°C° 0 mm 2 mps 722 mmHg 91%
07:00 +19°C° 0 mm 3 mps 723 mmHg 89%
08:00 +21°C° 0 mm 3 mps 723 mmHg 79%
09:00 +24°C° 0 mm 3 mps 723 mmHg 69%
10:00 +26°C° 0 mm 3 mps 723 mmHg 59%
11:00 +27°C° 0 mm 3 mps 723 mmHg 53%
12:00 +29°C° 0 mm 4 mps 723 mmHg 46%
13:00 +32°C° 0 mm 4 mps 723 mmHg 40%
14:00 +30°C° 0 mm 4 mps 723 mmHg 40%
15:00 +30°C° 0 mm 4 mps 723 mmHg 40%
16:00 +30°C° 0 mm 4 mps 723 mmHg 40%
17:00 +28°C° 0 mm 3 mps 723 mmHg 49%
18:00 +26°C° 0 mm 2 mps 723 mmHg 58%
19:00 +24°C° 0 mm 1 mps 723 mmHg 67%
20:00 +23°C° 0 mm 1 mps 723 mmHg 69%
21:00 +22°C° 0 mm 1 mps 723 mmHg 71%
22:00 +21°C° 0 mm 1 mps 723 mmHg 73%
23:00 +20°C° 0 mm 1 mps 723 mmHg 74%

4 August, Wednesday

Time Temperature Precipitation Wind Pressure Humidity
00:00 +20°C° 0 mm 1 mps 723 mmHg 75%
01:00 +20°C° 0 mm 1 mps 723 mmHg 76%
02:00 +20°C° 0 mm 1 mps 723 mmHg 75%
03:00 +20°C° 0 mm 1 mps 723 mmHg 73%
04:00 +20°C° 0 mm 1 mps 723 mmHg 71%
05:00 +22°C° 0 mm 1 mps 724 mmHg 69%
06:00 +23°C° 0 mm 1 mps 724 mmHg 67%
07:00 +24°C° 0 mm 1 mps 724 mmHg 65%
08:00 +26°C° 0 mm 1 mps 724 mmHg 57%
09:00 +28°C° 0 mm 1 mps 724 mmHg 50%
10:00 +30°C° 0 mm 1 mps 724 mmHg 42%
11:00 +31°C° 0 mm 1 mps 724 mmHg 38%
12:00 +32°C° 0 mm 1 mps 724 mmHg 35%
13:00 +34°C° 0 mm 1 mps 724 mmHg 31%
14:00 +34°C° 0 mm 1 mps 724 mmHg 30%
15:00 +34°C° 0 mm 1 mps 724 mmHg 30%
16:00 +34°C° 0 mm 1 mps 724 mmHg 29%
17:00 +32°C° 0 mm 1 mps 724 mmHg 38%
18:00 +28°C° 0 mm 0 mps 724 mmHg 47%
19:00 +25°C° 0 mm 0 mps 723 mmHg 56%
20:00 +24°C° 0 mm 0 mps 723 mmHg 59%
21:00 +25°C° 0 mm 1 mps 723 mmHg 62%
22:00 +23°C° 0 mm 1 mps 723 mmHg 64%
23:00 +23°C° 0 mm 1 mps 723 mmHg 65%
Show more